Location: Arrien
(43.3167°N, 0.1500°W)
Time: 04:47:45
(UTC+00:00)

YAOGAN 1 - Pass Details

Date: 15 October 2021
Orbit: 618 x 620 km, 97.9° (Epoch: 02 December)

Event Time Altitude Azimuth Distance (km) Brightness Sun altitude
Rises 19:21:15 0° 186° (S) 2,881 6.0 -23.2°
Reaches altitude 10° 19:23:34 10° 194° (SSW) 1,981 5.2 -23.7°
Maximum altitude 19:27:33 37° 262° (W) 973 4.0 -24.4°
Drops below altitude 10° 19:31:35 10° 331° (NNW) 1,996 5.7 -25.1°
Sets 19:33:56 0° 339° (NNW) 2,907 6.4 -25.5°
